Time,TemperatureF,DewpointF,PressureIn,WindDirection,WindDirectionDegrees,WindSpeedMPH,WindSpeedGustMPH,Humidity,HourlyPrecipIn,Conditions,Clouds,dailyrainin,SolarRadiationWatts/m^2,SoftwareType,DateUTC
2013-03-06 00:02:00,42.8,38.0,29.58,NW,317,0.0,0.0,83,0.00,,,0.00,0.0,WUHU216DAVISVP2,2013-03-06 00:02:00,
2013-03-06 00:07:00,42.7,37.9,29.58,NW,317,0.0,0.0,83,0.00,,,0.00,0.0,WUHU216DAVISVP2,2013-03-06 00:07:00,
2013-03-06 00:12:00,42.7,37.9,29.58,NW,317,0.0,0.0,83,0.00,,,0.00,0.0,WUHU216DAVISVP2,2013-03-06 00:12:00,
2013-03-06 00:17:00,42.6,38.1,29.57,NW,317,0.0,0.0,84,0.00,,,0.00,0.0,WUHU216DAVISVP2,2013-03-06 00:17:00,
2013-03-06 00:22:00,42.7,38.2,29.57,NW,317,0.0,0.0,84,0.00,,,0.00,0.0,WUHU216DAVISVP2,2013-03-06 00:22:00,
2013-03-06 00:27:00,42.7,38.2,29.57,NW,317,0.0,0.0,84,0.00,,,0.00,0.0,WUHU216DAVISVP2,2013-03-06 00:27:00,
2013-03-06 00:32:00,42.7,38.2,29.57,NW,317,0.0,0.0,84,0.00,,,0.00,0.0,WUHU216DAVISVP2,2013-03-06 00:32:00,
2013-03-06 00:37:00,42.7,38.2,29.57,NW,317,0.0,0.0,84,0.00,,,0.00,0.0,WUHU216DAVISVP2,2013-03-06 00:37:00,
2013-03-06 00:42:00,42.7,38.2,29.57,NW,317,0.0,0.0,84,0.00,,,0.00,0.0,WUHU216DAVISVP2,2013-03-06 00:42:00,
2013-03-06 00:47:00,42.7,38.2,29.57,NW,317,0.0,0.0,84,0.00,,,0.00,0.0,WUHU216DAVISVP2,2013-03-06 00:47:00,
2013-03-06 00:52:00,42.7,38.2,29.57,NW,317,0.0,0.0,84,0.00,,,0.00,0.0,WUHU216DAVISVP2,2013-03-06 00:52:00,
2013-03-06 00:57:00,42.6,38.1,29.57,NW,317,0.0,0.0,84,0.00,,,0.00,0.0,WUHU216DAVISVP2,2013-03-06 00:57:00,
2013-03-06 01:02:00,42.6,38.1,29.57,NW,317,0.0,0.0,84,0.00,,,0.00,0.0,WUHU216DAVISVP2,2013-03-06 01:02:00,
2013-03-06 01:07:00,42.5,38.0,29.56,NW,317,0.0,0.0,84,0.00,,,0.00,0.0,WUHU216DAVISVP2,2013-03-06 01:07:00,
2013-03-06 01:12:00,42.5,38.0,29.56,NW,317,0.0,0.0,84,0.00,,,0.00,0.0,WUHU216DAVISVP2,2013-03-06 01:12:00,
2013-03-06 01:17:00,42.4,38.2,29.56,NW,317,0.0,0.0,85,0.00,,,0.00,0.0,WUHU216DAVISVP2,2013-03-06 01:17:00,
2013-03-06 01:22:00,42.4,38.2,29.56,NW,317,0.0,0.0,85,0.00,,,0.00,0.0,WUHU216DAVISVP2,2013-03-06 01:22:00,
2013-03-06 01:27:00,42.3,38.1,29.56,NW,317,0.0,0.0,85,0.00,,,0.00,0.0,WUHU216DAVISVP2,2013-03-06 01:27:00,
2013-03-06 01:32:00,42.2,38.0,29.56,NW,317,0.0,0.0,85,0.00,,,0.00,0.0,WUHU216DAVISVP2,2013-03-06 01:32:00,
2013-03-06 01:37:00,42.2,38.0,29.56,NW,317,0.0,0.0,85,0.00,,,0.00,0.0,WUHU216DAVISVP2,2013-03-06 01:37:00,
2013-03-06 01:42:00,42.1,37.9,29.56,NW,317,0.0,0.0,85,0.00,,,0.00,0.0,WUHU216DAVISVP2,2013-03-06 01:42:00,
2013-03-06 01:47:00,42.1,37.9,29.56,NW,317,0.0,0.0,85,0.00,,,0.00,0.0,WUHU216DAVISVP2,2013-03-06 01:47:00,
2013-03-06 01:52:00,41.9,38.0,29.56,NW,317,0.0,0.0,86,0.00,,,0.00,0.0,WUHU216DAVISVP2,2013-03-06 01:52:00,
2013-03-06 01:57:00,41.8,37.6,29.56,NW,317,0.0,0.0,85,0.00,,,0.00,0.0,WUHU216DAVISVP2,2013-03-06 01:57:00,
2013-03-06 02:01:00,41.7,37.5,29.56,NW,317,0.0,0.0,85,0.00,,,0.00,0.0,WUHU216DAVISVP2,2013-03-06 02:01:00,
2013-03-06 02:06:00,41.6,37.7,29.56,NW,317,0.0,0.0,86,0.00,,,0.00,0.0,WUHU216DAVISVP2,2013-03-06 02:06:00,
2013-03-06 02:12:00,41.4,37.5,29.55,NW,317,0.0,0.0,86,0.00,,,0.00,0.0,WUHU216DAVISVP2,2013-03-06 02:12:00,
2013-03-06 02:18:00,41.3,37.7,29.55,NW,317,0.0,0.0,87,0.00,,,0.00,0.0,WUHU216DAVISVP2,2013-03-06 02:18:00,
2013-03-06 02:24:00,41.2,37.6,29.55,NW,317,0.0,0.0,87,0.00,,,0.00,0.0,WUHU216DAVISVP2,2013-03-06 02:24:00,
2013-03-06 02:29:00,41.2,37.6,29.55,NW,317,0.0,0.0,87,0.00,,,0.00,0.0,WUHU216DAVISVP2,2013-03-06 02:29:00,
2013-03-06 02:33:00,41.2,37.9,29.55,NW,317,0.0,0.0,88,0.00,,,0.00,0.0,WUHU216DAVISVP2,2013-03-06 02:33:00,
2013-03-06 02:39:00,41.1,37.8,29.55,NW,317,0.0,0.0,88,0.00,,,0.00,0.0,WUHU216DAVISVP2,2013-03-06 02:39:00,
2013-03-06 02:45:00,41.1,37.8,29.55,NW,317,0.0,0.0,88,0.00,,,0.00,0.0,WUHU216DAVISVP2,2013-03-06 02:45:00,
2013-03-06 02:50:00,41.1,37.8,29.55,NW,317,0.0,0.0,88,0.00,,,0.00,0.0,WUHU216DAVISVP2,2013-03-06 02:50:00,
2013-03-06 02:55:00,41.1,37.8,29.55,NW,317,0.0,0.0,88,0.00,,,0.00,0.0,WUHU216DAVISVP2,2013-03-06 02:55:00,
2013-03-06 03:01:00,41.1,37.8,29.55,NW,317,0.0,0.0,88,0.00,,,0.00,0.0,WUHU216DAVISVP2,2013-03-06 03:01:00,
2013-03-06 03:06:00,41.1,37.8,29.55,NW,317,0.0,0.0,88,0.00,,,0.00,0.0,WUHU216DAVISVP2,2013-03-06 03:06:00,
2013-03-06 03:11:00,41.2,37.9,29.55,NW,317,0.0,0.0,88,0.00,,,0.00,0.0,WUHU216DAVISVP2,2013-03-06 03:11:00,
2013-03-06 03:16:00,41.3,38.3,29.55,NW,317,0.0,0.0,89,0.00,,,0.00,0.0,WUHU216DAVISVP2,2013-03-06 03:16:00,
2013-03-06 03:21:00,41.3,38.0,29.55,NW,317,0.0,0.0,88,0.00,,,0.00,0.0,WUHU216DAVISVP2,2013-03-06 03:21:00,
2013-03-06 03:27:00,41.4,38.4,29.55,NW,317,0.0,0.0,89,0.00,,,0.00,0.0,WUHU216DAVISVP2,2013-03-06 03:27:00,
2013-03-06 03:32:00,41.4,38.4,29.55,NW,317,0.0,0.0,89,0.00,,,0.00,0.0,WUHU216DAVISVP2,2013-03-06 03:32:00,
2013-03-06 03:37:00,41.5,38.5,29.55,NW,317,0.0,0.0,89,0.00,,,0.00,0.0,WUHU216DAVISVP2,2013-03-06 03:37:00,
2013-03-06 03:42:00,41.6,38.6,29.55,NW,317,0.0,0.0,89,0.00,,,0.00,0.0,WUHU216DAVISVP2,2013-03-06 03:42:00,
2013-03-06 03:47:00,41.7,38.7,29.55,NW,317,0.0,0.0,89,0.00,,,0.00,0.0,WUHU216DAVISVP2,2013-03-06 03:47:00,
2013-03-06 03:52:00,41.8,38.8,29.55,NW,317,0.0,0.0,89,0.00,,,0.00,0.0,WUHU216DAVISVP2,2013-03-06 03:52:00,
2013-03-06 03:58:00,42.0,38.7,29.55,NW,317,0.0,0.0,88,0.00,,,0.00,0.0,WUHU216DAVISVP2,2013-03-06 03:58:00,
2013-03-06 04:03:00,42.1,38.8,29.55,NW,317,0.0,0.0,88,0.00,,,0.00,0.0,WUHU216DAVISVP2,2013-03-06 04:03:00,
2013-03-06 04:08:00,42.2,38.9,29.55,NW,317,0.0,0.0,88,0.00,,,0.00,0.0,WUHU216DAVISVP2,2013-03-06 04:08:00,
2013-03-06 04:13:00,42.4,39.1,29.55,NW,317,0.0,0.0,88,0.00,,,0.00,0.0,WUHU216DAVISVP2,2013-03-06 04:13:00,
2013-03-06 04:18:00,42.6,39.3,29.55,NW,317,0.0,0.0,88,0.00,,,0.00,0.0,WUHU216DAVISVP2,2013-03-06 04:18:00,
2013-03-06 04:23:00,42.7,39.1,29.55,NW,317,0.0,0.0,87,0.00,,,0.00,0.0,WUHU216DAVISVP2,2013-03-06 04:23:00,
2013-03-06 04:28:00,42.8,39.2,29.54,NW,317,0.0,0.0,87,0.00,,,0.00,0.0,WUHU216DAVISVP2,2013-03-06 04:28:00,
2013-03-06 04:33:00,42.8,39.2,29.54,NW,317,0.0,0.0,87,0.00,,,0.00,0.0,WUHU216DAVISVP2,2013-03-06 04:33:00,
2013-03-06 04:38:00,42.9,39.3,29.54,NW,317,0.0,0.0,87,0.00,,,0.00,0.0,WUHU216DAVISVP2,2013-03-06 04:38:00,
2013-03-06 04:44:00,42.9,39.3,29.55,NW,317,0.0,0.0,87,0.00,,,0.00,0.0,WUHU216DAVISVP2,2013-03-06 04:44:00,
2013-03-06 04:49:00,42.9,39.3,29.54,NW,317,0.0,0.0,87,0.00,,,0.00,0.0,WUHU216DAVISVP2,2013-03-06 04:49:00,
2013-03-06 04:51:00,42.9,39.3,29.54,NW,317,0.0,0.0,87,0.00,,,0.00,0.0,WUHU216DAVISVP2,2013-03-06 04:51:00,
2013-03-06 05:04:00,43.0,39.4,29.54,NW,317,0.0,0.0,87,0.00,,,0.00,0.0,WUHU216DAVISVP2,2013-03-06 05:04:00,
2013-03-06 05:09:00,43.1,39.5,29.54,NW,317,0.0,0.0,87,0.00,,,0.00,0.0,WUHU216DAVISVP2,2013-03-06 05:09:00,
2013-03-06 05:15:00,43.1,39.5,29.54,NW,317,0.0,0.0,87,0.00,,,0.00,0.0,WUHU216DAVISVP2,2013-03-06 05:15:00,
2013-03-06 05:20:00,43.2,39.6,29.54,NW,317,0.0,0.0,87,0.00,,,0.00,0.0,WUHU216DAVISVP2,2013-03-06 05:20:00,
2013-03-06 05:25:00,43.3,39.7,29.54,NW,317,0.0,0.0,87,0.00,,,0.00,0.0,WUHU216DAVISVP2,2013-03-06 05:25:00,
2013-03-06 05:30:00,43.4,39.8,29.54,NW,317,0.0,0.0,87,0.00,,,0.00,0.0,WUHU216DAVISVP2,2013-03-06 05:30:00,
2013-03-06 05:35:00,43.4,39.8,29.54,NW,317,0.0,0.0,87,0.00,,,0.00,0.0,WUHU216DAVISVP2,2013-03-06 05:35:00,
2013-03-06 05:40:00,43.5,39.9,29.54,NW,317,0.0,0.0,87,0.00,,,0.00,0.0,WUHU216DAVISVP2,2013-03-06 05:40:00,
2013-03-06 05:46:00,43.6,40.0,29.53,NW,317,0.0,0.0,87,0.00,,,0.00,0.0,WUHU216DAVISVP2,2013-03-06 05:46:00,
2013-03-06 05:51:00,43.6,39.7,29.54,NW,317,0.0,0.0,86,0.00,,,0.00,0.0,WUHU216DAVISVP2,2013-03-06 05:51:00,
2013-03-06 05:56:00,43.6,39.7,29.53,NW,317,0.0,0.0,86,0.00,,,0.00,0.0,WUHU216DAVISVP2,2013-03-06 05:56:00,
2013-03-06 06:01:00,43.6,39.7,29.53,NW,317,0.0,0.0,86,0.00,,,0.00,0.0,WUHU216DAVISVP2,2013-03-06 06:01:00,
2013-03-06 06:06:00,43.6,39.7,29.54,NW,317,0.0,0.0,86,0.00,,,0.00,0.0,WUHU216DAVISVP2,2013-03-06 06:06:00,
2013-03-06 06:12:00,43.7,39.8,29.54,NW,317,0.0,0.0,86,0.00,,,0.00,0.0,WUHU216DAVISVP2,2013-03-06 06:12:00,
2013-03-06 06:17:00,43.7,39.8,29.54,NW,317,0.0,0.0,86,0.00,,,0.00,0.0,WUHU216DAVISVP2,2013-03-06 06:17:00,
2013-03-06 06:22:00,43.7,39.8,29.54,NW,317,0.0,0.0,86,0.00,,,0.00,0.0,WUHU216DAVISVP2,2013-03-06 06:22:00,
2013-03-06 06:27:00,43.8,39.9,29.54,NW,317,0.0,0.0,86,0.00,,,0.00,0.0,WUHU216DAVISVP2,2013-03-06 06:27:00,
2013-03-06 06:33:00,43.8,39.9,29.54,NW,317,0.0,0.0,86,0.00,,,0.00,0.0,WUHU216DAVISVP2,2013-03-06 06:33:00,
2013-03-06 06:38:00,43.8,39.9,29.54,NW,317,0.0,0.0,86,0.00,,,0.00,0.0,WUHU216DAVISVP2,2013-03-06 06:38:00,
2013-03-06 06:43:00,43.8,39.9,29.54,NW,317,0.0,0.0,86,0.00,,,0.00,0.0,WUHU216DAVISVP2,2013-03-06 06:43:00,
2013-03-06 06:48:00,43.8,39.9,29.54,NW,317,0.0,0.0,86,0.00,,,0.00,5.0,WUHU216DAVISVP2,2013-03-06 06:48:00,
2013-03-06 06:53:00,43.9,40.0,29.54,NW,317,0.0,0.0,86,0.00,,,0.00,7.0,WUHU216DAVISVP2,2013-03-06 06:53:00,
2013-03-06 06:58:00,43.9,40.0,29.54,NW,317,0.0,0.0,86,0.00,,,0.00,11.0,WUHU216DAVISVP2,2013-03-06 06:58:00,
2013-03-06 07:03:00,43.9,40.0,29.54,NW,317,0.0,0.0,86,0.00,,,0.00,16.0,WUHU216DAVISVP2,2013-03-06 07:03:00,
2013-03-06 07:08:00,44.0,40.1,29.54,NW,317,0.0,0.0,86,0.00,,,0.00,18.0,WUHU216DAVISVP2,2013-03-06 07:08:00,
2013-03-06 07:13:00,44.1,40.2,29.55,NW,317,0.0,0.0,86,0.00,,,0.00,19.0,WUHU216DAVISVP2,2013-03-06 07:13:00,
2013-03-06 07:18:00,44.3,40.4,29.55,NW,317,0.0,1.0,86,0.00,,,0.00,19.0,WUHU216DAVISVP2,2013-03-06 07:18:00,
2013-03-06 07:23:00,44.4,40.5,29.55,NW,317,0.0,1.0,86,0.00,,,0.00,14.0,WUHU216DAVISVP2,2013-03-06 07:23:00,
2013-03-06 07:29:00,44.5,40.6,29.55,NW,317,0.0,1.0,86,0.00,,,0.00,12.0,WUHU216DAVISVP2,2013-03-06 07:29:00,
2013-03-06 07:34:00,44.5,40.8,29.55,NW,317,0.0,0.0,87,0.00,,,0.00,14.0,WUHU216DAVISVP2,2013-03-06 07:34:00,
2013-03-06 07:39:00,44.5,40.8,29.55,NW,317,0.0,0.0,87,0.00,,,0.00,12.0,WUHU216DAVISVP2,2013-03-06 07:39:00,
2013-03-06 07:44:00,44.5,40.6,29.55,NW,317,0.0,0.0,86,0.00,,,0.00,12.0,WUHU216DAVISVP2,2013-03-06 07:44:00,
2013-03-06 07:49:00,44.5,40.8,29.55,NW,317,0.0,0.0,87,0.00,,,0.00,11.0,WUHU216DAVISVP2,2013-03-06 07:49:00,
2013-03-06 07:54:00,44.5,40.6,29.55,NW,317,0.0,0.0,86,0.00,,,0.00,9.0,WUHU216DAVISVP2,2013-03-06 07:54:00,
2013-03-06 08:06:00,44.5,40.6,29.55,NW,317,0.0,0.0,86,0.00,,,0.00,9.0,WUHU216DAVISVP2,2013-03-06 08:06:00,
2013-03-06 08:11:00,44.6,40.7,29.55,NW,317,0.0,0.0,86,0.00,,,0.00,9.0,WUHU216DAVISVP2,2013-03-06 08:11:00,
2013-03-06 08:16:00,44.7,40.7,29.55,NW,317,0.0,0.0,86,0.00,,,0.00,12.0,WUHU216DAVISVP2,2013-03-06 08:16:00,
2013-03-06 08:21:00,44.7,40.7,29.56,NW,317,0.0,0.0,86,0.00,,,0.00,21.0,WUHU216DAVISVP2,2013-03-06 08:21:00,
2013-03-06 08:26:00,44.8,40.8,29.55,NW,317,0.0,1.0,86,0.00,,,0.00,32.0,WUHU216DAVISVP2,2013-03-06 08:26:00,
2013-03-06 08:31:00,44.9,40.9,29.55,NW,317,0.0,1.0,86,0.00,,,0.00,35.0,WUHU216DAVISVP2,2013-03-06 08:31:00,
2013-03-06 08:36:00,45.0,41.0,29.55,NW,317,1.0,1.0,86,0.00,,,0.00,46.0,WUHU216DAVISVP2,2013-03-06 08:36:00,
2013-03-06 08:41:00,45.2,40.9,29.55,NW,317,0.0,1.0,85,0.00,,,0.00,49.0,WUHU216DAVISVP2,2013-03-06 08:41:00,
2013-03-06 08:46:00,45.4,41.1,29.55,NW,317,0.0,1.0,85,0.00,,,0.00,46.0,WUHU216DAVISVP2,2013-03-06 08:46:00,
2013-03-06 08:51:00,45.6,41.3,29.55,NW,317,0.0,1.0,85,0.00,,,0.00,42.0,WUHU216DAVISVP2,2013-03-06 08:51:00,
2013-03-06 08:56:00,45.7,41.1,29.55,NW,317,0.0,1.0,84,0.00,,,0.00,42.0,WUHU216DAVISVP2,2013-03-06 08:56:00,
2013-03-06 09:01:00,45.9,41.3,29.55,NW,317,0.0,1.0,84,0.00,,,0.00,53.0,WUHU216DAVISVP2,2013-03-06 09:01:00,
2013-03-06 09:06:00,46.1,41.5,29.55,NW,317,0.0,1.0,84,0.00,,,0.00,65.0,WUHU216DAVISVP2,2013-03-06 09:06:00,
2013-03-06 09:11:00,46.3,41.7,29.54,NW,317,0.0,1.0,84,0.00,,,0.00,88.0,WUHU216DAVISVP2,2013-03-06 09:11:00,
2013-03-06 09:16:00,46.6,42.0,29.54,NW,317,0.0,1.0,84,0.00,,,0.00,100.0,WUHU216DAVISVP2,2013-03-06 09:16:00,
2013-03-06 09:21:00,46.8,41.9,29.54,NW,317,0.0,1.0,83,0.00,,,0.00,114.0,WUHU216DAVISVP2,2013-03-06 09:21:00,
2013-03-06 09:26:00,47.2,42.3,29.54,ENE,64,0.0,1.0,83,0.00,,,0.00,118.0,WUHU216DAVISVP2,2013-03-06 09:26:00,
2013-03-06 09:31:00,47.6,42.1,29.54,NNW,342,0.0,2.0,81,0.00,,,0.00,109.0,WUHU216DAVISVP2,2013-03-06 09:31:00,
2013-03-06 09:36:00,47.9,42.4,29.54,NW,326,1.0,4.0,81,0.00,,,0.00,127.0,WUHU216DAVISVP2,2013-03-06 09:36:00,
2013-03-06 09:41:00,48.2,42.4,29.55,NW,311,0.0,4.0,80,0.00,,,0.00,142.0,WUHU216DAVISVP2,2013-03-06 09:41:00,
2013-03-06 09:46:00,48.5,42.3,29.55,WNW,298,0.0,4.0,79,0.00,,,0.00,128.0,WUHU216DAVISVP2,2013-03-06 09:46:00,
2013-03-06 09:51:00,48.8,42.3,29.55,WNW,301,1.0,4.0,78,0.00,,,0.00,125.0,WUHU216DAVISVP2,2013-03-06 09:51:00,
2013-03-06 09:56:00,49.0,42.5,29.55,WNW,299,0.0,4.0,78,0.00,,,0.00,128.0,WUHU216DAVISVP2,2013-03-06 09:56:00,
2013-03-06 10:01:00,49.2,42.7,29.55,WNW,299,0.0,2.0,78,0.00,,,0.00,118.0,WUHU216DAVISVP2,2013-03-06 10:01:00,
2013-03-06 10:06:00,49.4,42.5,29.55,North,355,0.0,2.0,77,0.00,,,0.00,105.0,WUHU216DAVISVP2,2013-03-06 10:06:00,
2013-03-06 10:11:00,49.6,42.7,29.55,NW,312,0.0,2.0,77,0.00,,,0.00,107.0,WUHU216DAVISVP2,2013-03-06 10:11:00,
2013-03-06 10:16:00,49.7,42.8,29.55,NE,44,0.0,2.0,77,0.00,,,0.00,134.0,WUHU216DAVISVP2,2013-03-06 10:16:00,
2013-03-06 10:21:00,49.9,43.0,29.55,NE,44,0.0,2.0,77,0.00,,,0.00,146.0,WUHU216DAVISVP2,2013-03-06 10:21:00,
2013-03-06 10:26:00,50.1,42.9,29.55,NNE,19,1.0,2.0,76,0.00,,,0.00,141.0,WUHU216DAVISVP2,2013-03-06 10:26:00,
2013-03-06 10:31:00,50.3,42.8,29.55,WNW,297,0.0,4.0,75,0.00,,,0.00,139.0,WUHU216DAVISVP2,2013-03-06 10:31:00,
2013-03-06 10:36:00,50.4,42.8,29.55,WNW,292,0.0,4.0,75,0.00,,,0.00,135.0,WUHU216DAVISVP2,2013-03-06 10:36:00,
2013-03-06 10:41:00,50.5,43.6,29.55,WNW,292,0.0,4.0,77,0.00,,,0.00,116.0,WUHU216DAVISVP2,2013-03-06 10:41:00,
2013-03-06 10:47:00,50.6,43.4,29.55,WNW,292,0.0,4.0,76,0.00,,,0.00,98.0,WUHU216DAVISVP2,2013-03-06 10:47:00,
2013-03-06 10:51:00,50.7,43.1,29.55,WNW,293,0.0,2.0,75,0.00,,,0.00,91.0,WUHU216DAVISVP2,2013-03-06 10:51:00,
2013-03-06 10:56:00,50.8,43.6,29.55,WNW,293,0.0,1.0,76,0.00,,,0.00,98.0,WUHU216DAVISVP2,2013-03-06 10:56:00,
2013-03-06 11:01:00,50.9,43.3,29.54,WNW,293,0.0,1.0,75,0.00,,,0.00,104.0,WUHU216DAVISVP2,2013-03-06 11:01:00,
2013-03-06 11:06:00,51.0,43.4,29.54,WNW,289,0.0,4.0,75,0.00,,,0.00,102.0,WUHU216DAVISVP2,2013-03-06 11:06:00,
2013-03-06 11:11:00,51.1,43.5,29.54,WNW,289,0.0,4.0,75,0.00,,,0.00,105.0,WUHU216DAVISVP2,2013-03-06 11:11:00,
2013-03-06 11:16:00,51.2,43.6,29.54,WNW,289,0.0,4.0,75,0.00,,,0.00,100.0,WUHU216DAVISVP2,2013-03-06 11:16:00,
2013-03-06 11:21:00,51.3,43.7,29.54,WNW,289,0.0,4.0,75,0.00,,,0.00,105.0,WUHU216DAVISVP2,2013-03-06 11:21:00,
2013-03-06 11:26:00,51.5,43.6,29.54,WNW,289,0.0,2.0,74,0.00,,,0.00,93.0,WUHU216DAVISVP2,2013-03-06 11:26:00,
2013-03-06 11:31:00,51.6,43.3,29.54,WNW,289,0.0,2.0,73,0.00,,,0.00,107.0,WUHU216DAVISVP2,2013-03-06 11:31:00,
2013-03-06 11:36:00,51.8,43.2,29.54,WNW,289,0.0,2.0,72,0.00,,,0.00,100.0,WUHU216DAVISVP2,2013-03-06 11:36:00,
2013-03-06 11:41:00,51.9,43.6,29.54,WNW,289,0.0,2.0,73,0.00,,,0.00,116.0,WUHU216DAVISVP2,2013-03-06 11:41:00,
2013-03-06 11:46:00,52.0,44.1,29.54,WNW,289,0.0,2.0,74,0.00,,,0.00,125.0,WUHU216DAVISVP2,2013-03-06 11:46:00,
2013-03-06 11:51:00,52.1,44.5,29.54,WNW,289,0.0,1.0,75,0.00,,,0.00,123.0,WUHU216DAVISVP2,2013-03-06 11:51:00,
2013-03-06 11:56:00,52.2,44.6,29.54,WNW,289,0.0,1.0,75,0.00,,,0.00,123.0,WUHU216DAVISVP2,2013-03-06 11:56:00,
2013-03-06 12:01:00,52.4,44.8,29.54,WNW,289,0.0,0.0,75,0.00,,,0.00,142.0,WUHU216DAVISVP2,2013-03-06 12:01:00,
2013-03-06 12:06:00,52.6,43.9,29.54,WNW,289,0.0,1.0,72,0.00,,,0.00,155.0,WUHU216DAVISVP2,2013-03-06 12:06:00,
2013-03-06 12:11:00,52.8,43.8,29.54,WNW,289,0.0,1.0,71,0.00,,,0.00,149.0,WUHU216DAVISVP2,2013-03-06 12:11:00,
2013-03-06 12:16:00,53.0,43.6,29.54,WNW,294,0.0,2.0,70,0.00,,,0.00,153.0,WUHU216DAVISVP2,2013-03-06 12:16:00,
2013-03-06 12:21:00,53.3,43.9,29.53,WNW,294,1.0,2.0,70,0.00,,,0.00,165.0,WUHU216DAVISVP2,2013-03-06 12:21:00,
2013-03-06 12:27:00,53.5,44.1,29.54,WNW,293,0.0,2.0,70,0.00,,,0.00,149.0,WUHU216DAVISVP2,2013-03-06 12:27:00,
2013-03-06 12:32:00,53.7,44.3,29.53,WNW,293,0.0,2.0,70,0.00,,,0.00,127.0,WUHU216DAVISVP2,2013-03-06 12:32:00,
2013-03-06 12:37:00,53.8,44.0,29.53,WNW,293,0.0,2.0,69,0.00,,,0.00,148.0,WUHU216DAVISVP2,2013-03-06 12:37:00,
2013-03-06 12:42:00,54.0,44.6,29.53,WNW,293,0.0,2.0,70,0.00,,,0.00,128.0,WUHU216DAVISVP2,2013-03-06 12:42:00,
2013-03-06 12:47:00,54.0,44.2,29.53,WNW,293,0.0,2.0,69,0.00,,,0.00,130.0,WUHU216DAVISVP2,2013-03-06 12:47:00,
2013-03-06 12:52:00,54.2,44.4,29.52,WNW,293,0.0,2.0,69,0.00,,,0.00,149.0,WUHU216DAVISVP2,2013-03-06 12:52:00,
2013-03-06 12:57:00,54.3,44.8,29.52,WNW,293,0.0,1.0,70,0.00,,,0.00,153.0,WUHU216DAVISVP2,2013-03-06 12:57:00,
2013-03-06 13:02:00,54.4,44.2,29.52,WNW,293,0.0,4.0,68,0.00,,,0.00,142.0,WUHU216DAVISVP2,2013-03-06 13:02:00,
2013-03-06 13:07:00,54.6,44.4,29.52,WNW,293,0.0,4.0,68,0.00,,,0.00,134.0,WUHU216DAVISVP2,2013-03-06 13:07:00,
2013-03-06 13:12:00,54.7,44.5,29.52,WNW,293,0.0,4.0,68,0.00,,,0.00,132.0,WUHU216DAVISVP2,2013-03-06 13:12:00,
2013-03-06 13:17:00,54.9,44.7,29.52,WNW,293,0.0,4.0,68,0.00,,,0.00,118.0,WUHU216DAVISVP2,2013-03-06 13:17:00,
2013-03-06 13:22:00,55.0,44.0,29.52,WNW,292,0.0,2.0,66,0.00,,,0.00,120.0,WUHU216DAVISVP2,2013-03-06 13:22:00,
2013-03-06 13:27:00,55.0,44.4,29.52,WNW,284,0.0,4.0,67,0.00,,,0.00,139.0,WUHU216DAVISVP2,2013-03-06 13:27:00,
2013-03-06 13:32:00,55.1,44.9,29.52,WNW,284,0.0,4.0,68,0.00,,,0.00,149.0,WUHU216DAVISVP2,2013-03-06 13:32:00,
2013-03-06 13:37:00,55.3,44.3,29.52,WNW,284,0.0,4.0,66,0.00,,,0.00,134.0,WUHU216DAVISVP2,2013-03-06 13:37:00,
2013-03-06 13:42:00,55.4,44.4,29.52,NW,309,0.0,4.0,66,0.00,,,0.00,125.0,WUHU216DAVISVP2,2013-03-06 13:42:00,
2013-03-06 13:47:00,55.4,44.0,29.52,WNW,296,0.0,4.0,65,0.00,,,0.00,121.0,WUHU216DAVISVP2,2013-03-06 13:47:00,
2013-03-06 13:52:00,55.5,44.1,29.52,WNW,286,1.0,4.0,65,0.00,,,0.00,107.0,WUHU216DAVISVP2,2013-03-06 13:52:00,
2013-03-06 13:57:00,55.5,44.1,29.52,WNW,286,0.0,2.0,65,0.00,,,0.00,97.0,WUHU216DAVISVP2,2013-03-06 13:57:00,
2013-03-06 14:02:00,55.5,44.1,29.52,WNW,286,0.0,2.0,65,0.00,,,0.00,91.0,WUHU216DAVISVP2,2013-03-06 14:02:00,
2013-03-06 14:07:00,55.5,44.1,29.52,WNW,286,0.0,2.0,65,0.00,,,0.00,77.0,WUHU216DAVISVP2,2013-03-06 14:07:00,
2013-03-06 14:12:00,55.4,44.4,29.52,WNW,286,0.0,2.0,66,0.00,,,0.00,72.0,WUHU216DAVISVP2,2013-03-06 14:12:00,
2013-03-06 14:17:00,55.3,44.3,29.52,WNW,286,0.0,2.0,66,0.00,,,0.00,67.0,WUHU216DAVISVP2,2013-03-06 14:17:00,
2013-03-06 14:22:00,55.2,44.2,29.52,WNW,286,0.0,2.0,66,0.00,,,0.00,65.0,WUHU216DAVISVP2,2013-03-06 14:22:00,
2013-03-06 14:27:00,55.1,44.1,29.51,WNW,286,0.0,2.0,66,0.00,,,0.00,67.0,WUHU216DAVISVP2,2013-03-06 14:27:00,
2013-03-06 14:28:00,55.1,44.1,29.51,WNW,286,0.0,1.0,66,0.00,,,0.00,69.0,WUHU216DAVISVP2,2013-03-06 14:28:00,
2013-03-06 14:32:00,55.1,44.1,29.51,WNW,286,0.0,2.0,66,0.00,,,0.00,69.0,WUHU216DAVISVP2,2013-03-06 14:32:00,
2013-03-06 14:37:00,55.1,44.1,29.51,WNW,286,0.0,1.0,66,0.00,,,0.00,69.0,WUHU216DAVISVP2,2013-03-06 14:37:00,
2013-03-06 14:42:00,55.0,44.2,29.51,WNW,302,0.0,5.0,67,0.00,,,0.00,76.0,WUHU216DAVISVP2,2013-03-06 14:42:00,
2013-03-06 14:47:00,54.9,44.3,29.51,WNW,302,0.0,5.0,67,0.00,,,0.00,74.0,WUHU216DAVISVP2,2013-03-06 14:47:00,
2013-03-06 14:52:00,54.9,44.3,29.51,WNW,302,0.0,5.0,67,0.00,,,0.00,67.0,WUHU216DAVISVP2,2013-03-06 14:52:00,
2013-03-06 14:57:00,54.8,44.0,29.51,WNW,302,0.0,2.0,67,0.00,,,0.00,67.0,WUHU216DAVISVP2,2013-03-06 14:57:00,
2013-03-06 15:02:00,54.8,44.0,29.51,WNW,302,0.0,2.0,67,0.00,,,0.00,63.0,WUHU216DAVISVP2,2013-03-06 15:02:00,
2013-03-06 15:07:00,54.8,44.0,29.51,WNW,302,0.0,2.0,67,0.00,,,0.00,63.0,WUHU216DAVISVP2,2013-03-06 15:07:00,
2013-03-06 15:12:00,54.8,44.6,29.51,WNW,297,0.0,2.0,68,0.00,,,0.00,69.0,WUHU216DAVISVP2,2013-03-06 15:12:00,
2013-03-06 15:17:00,54.7,44.5,29.51,WNW,297,0.0,2.0,68,0.00,,,0.00,67.0,WUHU216DAVISVP2,2013-03-06 15:17:00,
2013-03-06 15:22:00,54.7,44.5,29.51,WNW,297,0.0,2.0,68,0.00,,,0.00,65.0,WUHU216DAVISVP2,2013-03-06 15:22:00,
2013-03-06 15:27:00,54.7,44.5,29.51,WNW,297,0.0,2.0,68,0.00,,,0.00,69.0,WUHU216DAVISVP2,2013-03-06 15:27:00,
2013-03-06 15:32:00,54.6,44.0,29.50,WNW,289,0.0,2.0,67,0.00,,,0.00,65.0,WUHU216DAVISVP2,2013-03-06 15:32:00,
2013-03-06 15:37:00,54.6,44.4,29.51,WNW,290,0.0,2.0,68,0.00,,,0.00,58.0,WUHU216DAVISVP2,2013-03-06 15:37:00,
2013-03-06 15:42:00,54.6,44.4,29.50,WNW,290,0.0,2.0,68,0.00,,,0.00,56.0,WUHU216DAVISVP2,2013-03-06 15:42:00,
2013-03-06 15:47:00,54.6,44.4,29.50,WNW,290,0.0,2.0,68,0.00,,,0.00,56.0,WUHU216DAVISVP2,2013-03-06 15:47:00,
2013-03-06 15:52:00,54.5,44.3,29.50,WNW,290,0.0,1.0,68,0.00,,,0.00,60.0,WUHU216DAVISVP2,2013-03-06 15:52:00,
2013-03-06 15:57:00,54.5,44.3,29.50,WNW,290,0.0,1.0,68,0.00,,,0.00,63.0,WUHU216DAVISVP2,2013-03-06 15:57:00,
2013-03-06 16:02:00,54.5,44.3,29.50,WNW,290,1.0,1.0,68,0.00,,,0.00,62.0,WUHU216DAVISVP2,2013-03-06 16:02:00,
2013-03-06 16:07:00,54.4,44.2,29.50,WNW,290,0.0,1.0,68,0.00,,,0.00,58.0,WUHU216DAVISVP2,2013-03-06 16:07:00,
2013-03-06 16:12:00,54.4,44.2,29.50,WNW,290,0.0,1.0,68,0.00,,,0.00,49.0,WUHU216DAVISVP2,2013-03-06 16:12:00,
2013-03-06 16:17:00,54.4,44.2,29.50,WNW,290,0.0,1.0,68,0.00,,,0.00,46.0,WUHU216DAVISVP2,2013-03-06 16:17:00,
2013-03-06 16:22:00,54.4,44.2,29.50,WNW,290,0.0,1.0,68,0.00,,,0.00,44.0,WUHU216DAVISVP2,2013-03-06 16:22:00,
2013-03-06 16:27:00,54.3,44.1,29.50,WNW,290,0.0,2.0,68,0.00,,,0.00,39.0,WUHU216DAVISVP2,2013-03-06 16:27:00,
2013-03-06 16:32:00,54.2,44.0,29.50,WNW,290,0.0,2.0,68,0.00,,,0.00,32.0,WUHU216DAVISVP2,2013-03-06 16:32:00,
2013-03-06 16:37:00,54.2,44.4,29.50,WNW,290,0.0,2.0,69,0.00,,,0.00,28.0,WUHU216DAVISVP2,2013-03-06 16:37:00,
2013-03-06 16:42:00,54.0,44.2,29.50,WNW,290,0.0,2.0,69,0.00,,,0.00,23.0,WUHU216DAVISVP2,2013-03-06 16:42:00,
2013-03-06 16:47:00,53.9,44.5,29.50,WNW,290,0.0,1.0,70,0.00,,,0.00,18.0,WUHU216DAVISVP2,2013-03-06 16:47:00,
2013-03-06 16:52:00,53.7,44.3,29.50,WNW,290,0.0,1.0,70,0.00,,,0.00,16.0,WUHU216DAVISVP2,2013-03-06 16:52:00,
2013-03-06 16:57:00,53.5,44.1,29.50,WNW,290,0.0,1.0,70,0.00,,,0.00,12.0,WUHU216DAVISVP2,2013-03-06 16:57:00,
2013-03-06 17:02:00,53.4,44.0,29.50,WNW,290,0.0,1.0,70,0.00,,,0.00,11.0,WUHU216DAVISVP2,2013-03-06 17:02:00,
2013-03-06 17:07:00,53.2,44.1,29.50,WNW,290,0.0,1.0,71,0.00,,,0.00,9.0,WUHU216DAVISVP2,2013-03-06 17:07:00,
2013-03-06 17:12:00,53.1,44.1,29.50,WNW,290,0.0,1.0,71,0.00,,,0.00,7.0,WUHU216DAVISVP2,2013-03-06 17:12:00,
2013-03-06 17:17:00,53.0,44.0,29.50,WNW,290,0.0,1.0,71,0.00,,,0.00,7.0,WUHU216DAVISVP2,2013-03-06 17:17:00,
2013-03-06 17:22:00,52.8,44.1,29.50,WNW,290,0.0,0.0,72,0.00,,,0.00,5.0,WUHU216DAVISVP2,2013-03-06 17:22:00,
2013-03-06 17:27:00,52.7,44.0,29.50,WNW,290,0.0,0.0,72,0.00,,,0.00,5.0,WUHU216DAVISVP2,2013-03-06 17:27:00,
2013-03-06 17:32:00,52.5,44.2,29.50,WNW,290,0.0,0.0,73,0.00,,,0.00,0.0,WUHU216DAVISVP2,2013-03-06 17:32:00,
2013-03-06 17:37:00,52.4,44.1,29.50,WNW,290,0.0,0.0,73,0.00,,,0.00,0.0,WUHU216DAVISVP2,2013-03-06 17:37:00,
2013-03-06 17:42:00,52.3,44.0,29.51,WNW,290,0.0,0.0,73,0.00,,,0.00,0.0,WUHU216DAVISVP2,2013-03-06 17:42:00,
2013-03-06 17:47:00,52.2,43.9,29.50,WNW,290,0.0,0.0,73,0.00,,,0.00,0.0,WUHU216DAVISVP2,2013-03-06 17:47:00,
2013-03-06 17:52:00,52.1,43.8,29.50,WNW,290,0.0,1.0,73,0.00,,,0.00,0.0,WUHU216DAVISVP2,2013-03-06 17:52:00,
2013-03-06 17:57:00,52.0,43.7,29.51,WNW,290,0.0,1.0,73,0.00,,,0.00,0.0,WUHU216DAVISVP2,2013-03-06 17:57:00,
2013-03-06 18:02:00,51.9,44.0,29.51,WNW,290,0.0,1.0,74,0.00,,,0.00,0.0,WUHU216DAVISVP2,2013-03-06 18:02:00,
2013-03-06 18:07:00,51.8,43.9,29.51,WNW,290,0.0,0.0,74,0.00,,,0.00,0.0,WUHU216DAVISVP2,2013-03-06 18:07:00,
2013-03-06 18:12:00,51.8,43.9,29.51,WNW,290,0.0,0.0,74,0.00,,,0.00,0.0,WUHU216DAVISVP2,2013-03-06 18:12:00,
2013-03-06 18:17:00,51.7,43.8,29.51,WNW,290,0.0,0.0,74,0.00,,,0.00,0.0,WUHU216DAVISVP2,2013-03-06 18:17:00,
2013-03-06 18:22:00,51.7,43.8,29.51,WNW,290,0.0,0.0,74,0.00,,,0.00,0.0,WUHU216DAVISVP2,2013-03-06 18:22:00,
2013-03-06 18:27:00,51.6,43.7,29.51,WNW,290,0.0,0.0,74,0.00,,,0.00,0.0,WUHU216DAVISVP2,2013-03-06 18:27:00,
2013-03-06 18:32:00,51.6,43.7,29.52,WNW,290,0.0,0.0,74,0.00,,,0.00,0.0,WUHU216DAVISVP2,2013-03-06 18:32:00,
2013-03-06 18:37:00,51.5,43.6,29.52,WNW,290,0.0,1.0,74,0.00,,,0.00,0.0,WUHU216DAVISVP2,2013-03-06 18:37:00,
2013-03-06 18:42:00,51.5,43.6,29.52,WNW,290,0.0,1.0,74,0.00,,,0.00,0.0,WUHU216DAVISVP2,2013-03-06 18:42:00,
2013-03-06 18:47:00,51.5,43.6,29.52,WNW,290,0.0,1.0,74,0.00,,,0.00,0.0,WUHU216DAVISVP2,2013-03-06 18:47:00,
2013-03-06 18:52:00,51.4,43.8,29.52,WNW,290,0.0,1.0,75,0.00,,,0.00,0.0,WUHU216DAVISVP2,2013-03-06 18:52:00,
2013-03-06 18:57:00,51.3,43.7,29.52,WNW,290,0.0,0.0,75,0.00,,,0.00,0.0,WUHU216DAVISVP2,2013-03-06 18:57:00,
2013-03-06 19:02:00,51.2,44.3,29.52,WNW,290,0.0,0.0,77,0.00,,,0.00,0.0,WUHU216DAVISVP2,2013-03-06 19:02:00,
2013-03-06 19:07:00,51.0,44.1,29.52,WNW,290,0.0,0.0,77,0.00,,,0.00,0.0,WUHU216DAVISVP2,2013-03-06 19:07:00,
2013-03-06 19:12:00,50.9,44.0,29.52,WNW,290,0.0,0.0,77,0.00,,,0.00,0.0,WUHU216DAVISVP2,2013-03-06 19:12:00,
2013-03-06 19:17:00,50.8,44.2,29.52,WNW,290,0.0,0.0,78,0.00,,,0.00,0.0,WUHU216DAVISVP2,2013-03-06 19:17:00,
2013-03-06 19:22:00,50.7,43.8,29.52,WNW,290,0.0,1.0,77,0.00,,,0.00,0.0,WUHU216DAVISVP2,2013-03-06 19:22:00,
2013-03-06 19:27:00,50.7,43.8,29.52,WNW,290,0.0,1.0,77,0.00,,,0.00,0.0,WUHU216DAVISVP2,2013-03-06 19:27:00,
2013-03-06 19:32:00,50.7,43.8,29.52,WNW,290,0.0,2.0,77,0.00,,,0.00,0.0,WUHU216DAVISVP2,2013-03-06 19:32:00,
2013-03-06 19:37:00,50.6,43.7,29.52,WNW,290,0.0,2.0,77,0.00,,,0.00,0.0,WUHU216DAVISVP2,2013-03-06 19:37:00,
2013-03-06 19:42:00,50.6,43.4,29.52,WNW,290,0.0,2.0,76,0.00,,,0.00,0.0,WUHU216DAVISVP2,2013-03-06 19:42:00,
2013-03-06 19:47:00,50.6,43.4,29.52,WNW,290,0.0,1.0,76,0.00,,,0.00,0.0,WUHU216DAVISVP2,2013-03-06 19:47:00,
2013-03-06 19:52:00,50.5,43.3,29.52,WNW,290,0.0,1.0,76,0.00,,,0.00,0.0,WUHU216DAVISVP2,2013-03-06 19:52:00,
2013-03-06 19:57:00,50.5,43.3,29.52,WNW,290,0.0,1.0,76,0.00,,,0.00,0.0,WUHU216DAVISVP2,2013-03-06 19:57:00,
2013-03-06 20:02:00,50.4,43.2,29.52,WNW,290,0.0,1.0,76,0.00,,,0.00,0.0,WUHU216DAVISVP2,2013-03-06 20:02:00,
2013-03-06 20:07:00,50.3,43.4,29.52,WNW,290,0.0,1.0,77,0.00,,,0.00,0.0,WUHU216DAVISVP2,2013-03-06 20:07:00,
2013-03-06 20:12:00,50.2,43.0,29.52,WNW,290,0.0,1.0,76,0.00,,,0.00,0.0,WUHU216DAVISVP2,2013-03-06 20:12:00,
2013-03-06 20:17:00,50.1,43.2,29.52,WNW,290,0.0,1.0,77,0.00,,,0.00,0.0,WUHU216DAVISVP2,2013-03-06 20:17:00,
2013-03-06 20:22:00,50.0,43.1,29.52,WNW,290,0.0,0.0,77,0.00,,,0.00,0.0,WUHU216DAVISVP2,2013-03-06 20:22:00,
2013-03-06 20:27:00,49.9,43.0,29.52,WNW,290,0.0,1.0,77,0.00,,,0.00,0.0,WUHU216DAVISVP2,2013-03-06 20:27:00,
2013-03-06 20:32:00,49.8,43.3,29.53,WNW,290,0.0,1.0,78,0.00,,,0.00,0.0,WUHU216DAVISVP2,2013-03-06 20:32:00,
2013-03-06 20:37:00,49.7,43.2,29.53,WNW,290,0.0,1.0,78,0.00,,,0.00,0.0,WUHU216DAVISVP2,2013-03-06 20:37:00,
2013-03-06 20:42:00,49.7,43.5,29.52,WNW,290,0.0,1.0,79,0.00,,,0.00,0.0,WUHU216DAVISVP2,2013-03-06 20:42:00,
2013-03-06 20:47:00,49.6,43.4,29.52,WNW,290,0.0,1.0,79,0.00,,,0.00,0.0,WUHU216DAVISVP2,2013-03-06 20:47:00,
2013-03-06 20:52:00,49.5,43.3,29.52,WNW,290,0.0,1.0,79,0.00,,,0.00,0.0,WUHU216DAVISVP2,2013-03-06 20:52:00,
2013-03-06 20:57:00,49.3,43.1,29.52,WNW,290,0.0,1.0,79,0.00,,,0.00,0.0,WUHU216DAVISVP2,2013-03-06 20:57:00,
2013-03-06 21:02:00,49.2,43.3,29.52,WNW,290,0.0,1.0,80,0.00,,,0.00,0.0,WUHU216DAVISVP2,2013-03-06 21:02:00,
2013-03-06 21:07:00,49.1,43.2,29.52,WNW,290,0.0,1.0,80,0.00,,,0.00,0.0,WUHU216DAVISVP2,2013-03-06 21:07:00,
2013-03-06 21:12:00,49.0,43.1,29.52,WNW,290,0.0,1.0,80,0.00,,,0.00,0.0,WUHU216DAVISVP2,2013-03-06 21:12:00,
2013-03-06 21:17:00,48.9,43.0,29.52,WNW,290,0.0,1.0,80,0.00,,,0.00,0.0,WUHU216DAVISVP2,2013-03-06 21:17:00,
2013-03-06 21:22:00,48.8,42.9,29.52,WNW,290,0.0,1.0,80,0.00,,,0.00,0.0,WUHU216DAVISVP2,2013-03-06 21:22:00,
2013-03-06 21:27:00,48.7,42.8,29.52,WNW,290,0.0,1.0,80,0.00,,,0.00,0.0,WUHU216DAVISVP2,2013-03-06 21:27:00,
2013-03-06 21:32:00,48.5,42.6,29.52,WNW,290,0.0,1.0,80,0.00,,,0.00,0.0,WUHU216DAVISVP2,2013-03-06 21:32:00,
2013-03-06 21:37:00,48.5,42.3,29.52,WNW,290,0.0,1.0,79,0.00,,,0.00,0.0,WUHU216DAVISVP2,2013-03-06 21:37:00,
2013-03-06 21:42:00,48.4,42.2,29.52,WNW,290,0.0,1.0,79,0.00,,,0.00,0.0,WUHU216DAVISVP2,2013-03-06 21:42:00,
2013-03-06 21:47:00,48.4,42.5,29.52,WNW,290,0.0,1.0,80,0.00,,,0.00,0.0,WUHU216DAVISVP2,2013-03-06 21:47:00,
2013-03-06 21:52:00,48.3,42.4,29.52,WNW,290,0.0,1.0,80,0.00,,,0.00,0.0,WUHU216DAVISVP2,2013-03-06 21:52:00,
2013-03-06 21:57:00,48.2,42.7,29.52,WNW,290,0.0,0.0,81,0.00,,,0.00,0.0,WUHU216DAVISVP2,2013-03-06 21:57:00,
2013-03-06 22:02:00,48.1,42.6,29.52,WNW,290,0.0,0.0,81,0.00,,,0.00,0.0,WUHU216DAVISVP2,2013-03-06 22:02:00,
2013-03-06 22:07:00,47.9,42.7,29.52,WNW,290,0.0,0.0,82,0.00,,,0.00,0.0,WUHU216DAVISVP2,2013-03-06 22:07:00,
2013-03-06 22:12:00,47.8,42.6,29.52,WNW,290,0.0,0.0,82,0.00,,,0.00,0.0,WUHU216DAVISVP2,2013-03-06 22:12:00,
2013-03-06 22:17:00,47.7,42.8,29.52,WNW,290,0.0,0.0,83,0.00,,,0.00,0.0,WUHU216DAVISVP2,2013-03-06 22:17:00,
2013-03-06 22:22:00,47.6,42.7,29.52,WNW,290,0.0,0.0,83,0.00,,,0.00,0.0,WUHU216DAVISVP2,2013-03-06 22:22:00,
2013-03-06 22:27:00,47.4,42.8,29.52,WNW,290,0.0,0.0,84,0.00,,,0.00,0.0,WUHU216DAVISVP2,2013-03-06 22:27:00,
2013-03-06 22:32:00,47.3,43.0,29.52,WNW,290,0.0,0.0,85,0.00,,,0.00,0.0,WUHU216DAVISVP2,2013-03-06 22:32:00,
2013-03-06 22:37:00,47.2,42.9,29.52,WNW,290,0.0,0.0,85,0.00,,,0.00,0.0,WUHU216DAVISVP2,2013-03-06 22:37:00,
2013-03-06 22:42:00,47.1,43.1,29.52,WNW,290,0.0,0.0,86,0.00,,,0.00,0.0,WUHU216DAVISVP2,2013-03-06 22:42:00,
2013-03-06 22:47:00,46.9,42.9,29.52,WNW,290,0.0,0.0,86,0.00,,,0.00,0.0,WUHU216DAVISVP2,2013-03-06 22:47:00,
2013-03-06 22:52:00,46.8,43.1,29.51,WNW,290,0.0,0.0,87,0.01,,,0.01,0.0,WUHU216DAVISVP2,2013-03-06 22:52:00,
2013-03-06 22:57:00,46.7,43.0,29.51,WNW,290,0.0,0.0,87,0.01,,,0.01,0.0,WUHU216DAVISVP2,2013-03-06 22:57:00,
2013-03-06 23:02:00,46.5,42.8,29.51,WNW,290,0.0,0.0,87,0.01,,,0.01,0.0,WUHU216DAVISVP2,2013-03-06 23:02:00,
2013-03-06 23:07:00,46.4,42.7,29.51,WNW,290,0.0,0.0,87,0.01,,,0.01,0.0,WUHU216DAVISVP2,2013-03-06 23:07:00,
2013-03-06 23:12:00,46.3,42.6,29.51,WNW,290,0.0,0.0,87,0.01,,,0.01,0.0,WUHU216DAVISVP2,2013-03-06 23:12:00,
2013-03-06 23:14:00,46.2,42.8,29.51,WNW,290,0.0,0.0,88,0.01,,,0.01,0.0,WUHU216DAVISVP2,2013-03-06 23:14:00,
2013-03-06 23:20:00,46.1,42.7,29.51,WNW,290,0.0,0.0,88,0.01,,,0.01,0.0,WUHU216DAVISVP2,2013-03-06 23:20:00,
2013-03-06 23:25:00,46.0,42.6,29.51,WNW,290,0.0,0.0,88,0.01,,,0.01,0.0,WUHU216DAVISVP2,2013-03-06 23:25:00,
2013-03-06 23:30:00,45.9,42.5,29.51,WNW,290,0.0,0.0,88,0.01,,,0.01,0.0,WUHU216DAVISVP2,2013-03-06 23:30:00,
2013-03-06 23:35:00,45.8,42.4,29.51,WNW,290,0.0,1.0,88,0.01,,,0.01,0.0,WUHU216DAVISVP2,2013-03-06 23:35:00,
2013-03-06 23:39:00,45.8,42.7,29.51,WNW,290,0.0,1.0,89,0.01,,,0.01,0.0,WUHU216DAVISVP2,2013-03-06 23:39:00,
2013-03-06 23:45:00,45.8,42.7,29.51,WNW,290,0.0,1.0,89,0.01,,,0.01,0.0,WUHU216DAVISVP2,2013-03-06 23:45:00,
2013-03-06 23:50:00,45.8,42.7,29.51,WNW,290,0.0,1.0,89,0.00,,,0.01,0.0,WUHU216DAVISVP2,2013-03-06 23:50:00,
2013-03-06 23:55:00,45.7,42.6,29.50,WNW,290,0.0,1.0,89,0.00,,,0.01,0.0,WUHU216DAVISVP2,2013-03-06 23:55:00,